IQ1LY-3 Weather Reports


time (UTC)temp
F
wind
direction
speed
knots
gust
knots
rain 1hr
in
rain 24hr
in
rain mn
in
humidity
%
barometer
mb
20260503202300 58 270 0.0 0.0 0.00 0.00 0.00 79 1017.9
20260503201157 59 293 0.0 0.0 0.00 0.00 0.00 79 1017.9
20260503200156 59 293 0.0 0.0 0.00 0.00 0.00 79 1017.9
20260503195155 59 293 0.0 0.0 0.00 0.00 0.00 79 1017.6
20260503194154 60 293 0.0 0.0 0.00 0.00 0.00 79 1017.6
20260503193153 60 293 0.0 0.0 0.00 0.00 0.00 78 1017.6
20260503192152 60 293 0.0 0.0 0.00 0.00 0.00 78 1017.6
20260503191151 61 0 0.0 0.0 0.00 0.00 0.00 77 1017.6
20260503190151 61 0 0.0 0.0 0.00 0.00 0.00 76 1017.6
20260503185150 62 23 0.0 0.0 0.00 0.00 0.00 76 1017.6
20260503184118 62 23 0.0 0.0 0.00 0.00 0.00 75 1017.6
20260503183117 63 113 0.0 0.0 0.00 0.00 0.00 75 1017.6
20260503182116 63 90 0.0 0.0 0.00 0.00 0.00 74 1017.3
20260503180942 63 113 0.0 0.0 0.00 0.00 0.00 73 1017.6
20260503175909 64 135 0.0 0.0 0.00 0.00 0.00 73 1017.6
20260503174908 64 135 0.0 0.0 0.00 0.00 0.00 72 1017.6
20260503173907 64 203 0.0 0.0 0.00 0.00 0.00 71 1017.6
20260503172907 64 45 0.0 0.0 0.00 0.00 0.00 71 1017.3
20260503171905 65 135 0.0 0.0 0.00 0.00 0.00 70 1017.6
20260503170904 65 68 0.0 0.9 0.00 0.00 0.00 70 1017.6
20260503130640 69 79 1.7 4.3 0.00 0.00 0.00 61 1019.3
20260503110457 68 103 2.6 3.5 0.00 0.00 0.00 64 1020.0
20260503090343 65 135 2.6 2.6 0.00 0.00 0.00 70 1020.3
20260503081235 65 158 0.9 1.7 0.00 0.00 0.00 66 1020.0
20260503080233 65 68 1.7 1.7 0.00 0.00 0.00 65 1020.0
20260503072230 64 128 1.7 1.7 0.00 0.00 0.00 62 1020.0
20260503071158 65 158 0.0 0.0 0.00 0.00 0.00 60 1020.0
20260503070157 65 180 0.0 0.0 0.00 0.00 0.00 59 1019.6
20260503060119 56 270 0.0 0.0 0.00 0.00 0.00 73 1019.6
20260503055047 55 248 0.0 0.0 0.00 0.00 0.00 77 1019.6
20260503054047 53 270 0.0 0.0 0.00 0.00 0.00 77 1019.6
20260503053046 52 270 0.0 0.0 0.00 0.00 0.00 76 1019.6
20260503052014 52 270 0.0 0.0 0.00 0.00 0.00 76 1019.6
20260503051012 51 270 0.0 0.0 0.00 0.00 0.00 75 1019.6
20260503050011 51 270 0.0 0.0 0.00 0.00 0.00 75 1019.6
20260503045011 51 270 0.0 0.0 0.00 0.00 0.00 75 1019.6
20260503043938 51 293 0.0 0.0 0.00 0.00 0.00 75 1019.6
20260503042938 50 270 0.0 0.0 0.00 0.00 0.00 74 1019.6
20260503041937 50 270 0.0 0.0 0.00 0.00 0.00 74 1019.3
20260503040937 51 270 0.0 0.0 0.00 0.00 0.00 73 1019.3
20260503035936 51 270 0.0 0.0 0.00 0.00 0.00 73 1019.6
20260503034904 51 270 0.0 0.0 0.00 0.00 0.00 73 1019.3
20260503033903 51 270 0.0 0.0 0.00 0.00 0.00 72 1019.3
20260503032902 51 270 0.0 0.0 0.00 0.00 0.00 72 1019.6
20260503031901 51 270 0.0 0.0 0.00 0.00 0.00 72 1019.6
20260503030901 51 270 0.0 0.0 0.00 0.00 0.00 72 1019.6
20260503025829 51 270 0.0 0.0 0.00 0.00 0.00 73 1019.6
20260503024828 51 270 0.0 0.0 0.00 0.00 0.00 73 1019.6
20260503023827 51 270 0.0 0.0 0.00 0.00 0.00 73 1019.6
20260503022826 51 270 0.0 0.0 0.00 0.00 0.00 73 1019.6
20260503021825 51 270 0.0 0.0 0.00 0.00 0.00 73 1019.6
20260503020721 51 293 0.0 0.0 0.00 0.00 0.00 73 1019.6
20260503015721 51 270 0.0 0.0 0.00 0.00 0.00 73 1019.6
20260503014720 52 270 0.0 0.0 0.00 0.00 0.00 72 1020.0
20260503013719 52 293 0.0 0.0 0.00 0.00 0.00 73 1020.0
20260503012718 52 270 0.0 0.0 0.00 0.00 0.00 73 1020.0
20260503011717 52 270 0.0 0.0 0.00 0.00 0.00 72 1019.6
20260503010716 52 270 0.0 0.0 0.00 0.00 0.00 70 1019.6
20260503005716 52 270 0.0 0.0 0.00 0.00 0.00 70 1020.0
20260503004715 52 270 0.0 0.0 0.00 0.00 0.00 70 1020.0
20260503003714 52 270 0.0 0.0 0.00 0.00 0.00 70 1020.0
20260503002713 52 270 0.0 0.0 0.00 0.00 0.00 70 1020.0
20260503001712 52 270 0.0 0.0 0.00 0.00 0.00 70 1020.3
20260503000711 53 270 0.0 0.0 0.00 0.00 0.00 70 1020.3
20260502235710 53 270 0.0 0.0 0.00 0.00 0.00 70 1020.3
20260502234708 53 270 0.0 0.0 0.00 0.00 0.00 70 1020.3
20260502233707 53 270 0.0 0.0 0.00 0.00 0.00 69 1020.3
20260502232706 53 293 0.0 0.0 0.00 0.00 0.00 69 1020.7
20260502231706 53 270 0.0 0.0 0.00 0.00 0.00 69 1020.7
20260502230705 53 270 0.0 0.0 0.00 0.00 0.00 68 1020.7
20260502225704 54 270 0.0 0.0 0.00 0.00 0.00 68 1020.7
20260502224703 54 270 0.0 0.0 0.00 0.00 0.00 68 1020.7
20260502223703 54 270 0.0 0.0 0.00 0.00 0.00 68 1020.7
20260502222702 54 270 0.0 0.0 0.00 0.00 0.00 67 1020.7
20260502221702 54 270 0.0 0.0 0.00 0.00 0.00 67 1021.0
20260502220701 54 270 0.0 0.0 0.00 0.00 0.00 67 1021.0
20260502215700 54 293 0.0 0.0 0.00 0.00 0.00 67 1021.0
20260502214659 54 270 0.0 0.0 0.00 0.00 0.00 67 1021.0
20260502213658 54 270 0.0 0.0 0.00 0.00 0.00 67 1021.0
20260502211459 56 270 0.0 0.0 0.00 0.00 0.00 64 1021.0
20260502210458 56 270 0.0 0.0 0.00 0.00 0.00 64 1021.0